Ramona, CA

10:21 AM PDT on March 26, 2017 (GMT -0700)
Ramona

Weather History for KRNM - March, 2013

Change the Weather History Date:

Sunday, March 10, 2013

  Actual Average Record
Temperature  
Mean Temperature 50 °F 53 °F  
Max Temperature 69 °F 66 °F 89 °F (1997)
Min Temperature 30 °F 39 °F 30 °F (2013)
Degree Days  
Heating Degree Days 15 12  
Month to date heating degree days 125 128  
Since 1 July heating degree days 1898 1869  
Cooling Degree Days 0 0  
Month to date cooling degree days 0 0  
Year to date cooling degree days 0 1  
Moisture  
Dew Point 36 °F    
Average Humidity 66    
Maximum Humidity 100    
Minimum Humidity 32    
Precipitation  
Precipitation 0.00 in 0.12 in 0.93 in (2001)
Month to date precipitation 1.41 1.66  
Year to date precipitation 3.97 8.09  
Since 1 July precipitation 7.61  
Snow  
Snow 0.00 in - - ()
Month to date snowfall 0.0  
Year to date snowfall 0.0  
Snow Depth 0.00 in    
Sea Level Pressure  
Sea Level Pressure 30.20 in    
Wind  
Wind Speed 5 mph (North)    
Max Wind Speed 14 mph    
Max Gust Speed -    
Visibility 6 miles    
Events Fog    
T = Trace of Precipitation, MM = Missing Value Source: NWS Daily Summary

Daily Weather History Graph

Daily Weather History Graph

Search for Another Location

Airport or City:

Trip Planner

Search our weather history database for the weather conditions in past years. The results will help you decide how hot, cold, wet, or windy it might be!

Date:

Astronomy

Mar. 10, 2013 Rise Set
Actual Time 7:03 AM PDT 6:52 PM PDT
Civil Twilight 6:39 AM PDT 7:16 PM PDT
Nautical Twilight 6:10 AM PDT 7:45 PM PDT
Astronomical Twilight 5:41 AM PDT 8:14 PM PDT
Moon 6:04 AM PDT (3/10) 6:04 PM PDT (3/10)
Length of Visible Light 12h 37m
Length of Day
11h 48m
Waning Crescent, 1% of the Moon is Illuminated
Mar 10
Waning Crescent
Mar 11
New
Mar 19
First Quarter
Mar 27
Full
Apr 2
Last Quarter

Hourly Weather History & Observations

Time (PDT) Temp. Windchill Dew Point Humidity Pressure Visibility Wind Dir Wind Speed Gust Speed Precip Events Conditions
12:09 AM 37.4 °F 34.9 °F 35.6 °F 93% 30.21 in 2.5 mi East 3.5 mph - N/A   Partly Cloudy
12:16 AM 39.2 °F 37.0 °F 37.4 °F 93% 30.21 in 5.0 mi East 3.5 mph - N/A   Partly Cloudy
12:46 AM 35.6 °F - 33.8 °F 93% 30.21 in 1.8 mi Calm Calm - N/A   Clear
12:53 AM 34.0 °F 31.0 °F 33.1 °F 96% 30.22 in 1.0 mi WSW 3.5 mph - N/A   Clear
12:56 AM 33.8 °F - 33.8 °F 100% 30.21 in 0.8 mi Calm Calm - N/A   Mist
1:04 AM 33.8 °F - 33.8 °F 100% 30.21 in 1.2 mi Calm Calm - N/A   Partly Cloudy
1:07 AM 33.8 °F - 33.8 °F 100% 30.21 in 3.0 mi Calm Calm - N/A   Partly Cloudy
1:53 AM 34.0 °F 29.8 °F 33.1 °F 96% 30.22 in 2.5 mi ESE 4.6 mph - N/A   Clear
1:58 AM 33.8 °F 30.8 °F 33.8 °F 100% 30.21 in 1.0 mi East 3.5 mph - N/A   Mist
3:05 AM 35.6 °F 32.8 °F 33.8 °F 93% 30.21 in 0.2 mi ESE 3.5 mph - N/A Fog Fog
3:15 AM 35.6 °F - 33.8 °F 93% 30.21 in 1.0 mi Calm Calm - N/A   Mist
3:17 AM 33.8 °F - 33.8 °F 100% 30.21 in 2.5 mi Calm Calm - N/A   Partly Cloudy
3:24 AM 35.6 °F 32.8 °F 35.6 °F 100% 30.21 in 5.0 mi ENE 3.5 mph - N/A   Partly Cloudy
3:53 AM 34.0 °F - 34.0 °F 100% 30.21 in 6.0 mi Calm Calm - N/A   Clear
4:01 AM 33.8 °F 29.6 °F 32.0 °F 93% 30.20 in 1.5 mi SSE 4.6 mph - N/A   Clear
4:16 AM 37.4 °F - 35.6 °F 93% 30.20 in 3.0 mi Calm Calm - N/A   Clear
4:53 AM 34.0 °F - 33.1 °F 96% 30.21 in 4.0 mi Calm Calm - N/A   Clear
5:28 AM 33.8 °F 30.8 °F 30.2 °F 87% 30.20 in 1.8 mi ESE 3.5 mph - N/A   Partly Cloudy
5:31 AM 32.0 °F - 30.2 °F 93% 30.20 in 0.8 mi Calm Calm - N/A   Mist
5:42 AM 32.0 °F - 30.2 °F 93% 30.20 in 1.2 mi Calm Calm - N/A   Partly Cloudy
5:49 AM 33.8 °F - 32.0 °F 93% 30.21 in 3.0 mi Calm Calm - N/A   Partly Cloudy
5:53 AM 33.1 °F - 32.0 °F 96% 30.22 in 5.0 mi Calm Calm - N/A   Partly Cloudy
6:53 AM 34.0 °F - 32.0 °F 92% 30.22 in 7.0 mi Calm Calm - N/A   Clear
7:53 AM 35.1 °F 32.2 °F 34.0 °F 96% 30.24 in 7.0 mi East 3.5 mph - N/A   Clear
8:53 AM 45.0 °F 43.5 °F 41.0 °F 86% 30.24 in 10.0 mi West 3.5 mph - N/A   Clear
9:53 AM 57.0 °F - 43.0 °F 59% 30.24 in 10.0 mi Calm Calm - N/A   Clear
10:53 AM 63.0 °F - 37.9 °F 40% 30.23 in 10.0 mi Variable 3.5 mph - N/A   Clear
11:53 AM 64.0 °F - 41.0 °F 43% 30.21 in 10.0 mi NW 10.4 mph - N/A   Clear
12:53 PM 66.9 °F - 42.1 °F 40% 30.19 in 10.0 mi NW 10.4 mph - N/A   Clear
1:53 PM 66.9 °F - 37.9 °F 34% 30.17 in 10.0 mi NW 10.4 mph - N/A   Clear
2:53 PM 66.0 °F - 44.1 °F 45% 30.17 in 10.0 mi West 13.8 mph - N/A   Clear
3:53 PM 66.9 °F - 36.0 °F 32% 30.15 in 10.0 mi West 9.2 mph - N/A   Clear
4:53 PM 64.9 °F - 41.0 °F 42% 30.15 in 10.0 mi WNW 12.7 mph - N/A   Clear
5:53 PM 63.0 °F - 36.0 °F 37% 30.15 in 10.0 mi WNW 6.9 mph - N/A   Clear
6:53 PM 57.0 °F - 35.1 °F 44% 30.18 in 10.0 mi WNW 5.8 mph - N/A   Clear
7:53 PM 50.0 °F - 37.9 °F 63% 30.19 in 10.0 mi West 5.8 mph - N/A   Clear
8:53 PM 50.0 °F - 37.0 °F 61% 30.19 in 10.0 mi NE 3.5 mph - N/A   Clear
9:53 PM 44.1 °F 41.5 °F 37.9 °F 79% 30.20 in 10.0 mi South 4.6 mph - N/A   Clear
10:53 PM 44.1 °F - 37.0 °F 76% 30.19 in 10.0 mi Calm Calm - N/A   Clear
11:53 PM 39.9 °F - 35.1 °F 83% 30.19 in 10.0 mi Calm Calm - N/A   Clear
12:53 AM 39.9 °F 36.7 °F 36.0 °F 86% 30.18 in 10.0 mi NE 4.6 mph - N/A   Clear